XXU YCBG-YCBG

Flight info

Callsign XXU
Flight time 0h 7m
Altitude 3000
Route VFR
Aircraft AS50/L-SDFGIR/S

Departure

Time 2026-04-20 07:07
Airport Cambridge Aerodrome (YCBG)

Arrival

Time 2026-04-20 07:15
Airport Cambridge Aerodrome (YCBG)
Time Latitude Longitude Altitude Speed Heading
2026-04-20 07:01 -42.82882 147.47708 36 ft 0 kts 194°
2026-04-20 07:06 -42.82888 147.47708 42 ft 2 kts 187°
2026-04-20 07:06 -42.82899 147.47684 45 ft 4 kts 271°
2026-04-20 07:06 -42.82893 147.47642 51 ft 4 kts 289°
2026-04-20 07:07 -42.82811 147.47583 150 ft 43 kts 343°
2026-04-20 07:07 -42.82399 147.47664 387 ft 74 kts 38°
2026-04-20 07:07 -42.81978 147.48112 646 ft 83 kts 43°
2026-04-20 07:07 -42.81474 147.48573 822 ft 94 kts 33°
2026-04-20 07:08 -42.81086 147.48853 972 ft 95 kts 31°
2026-04-20 07:08 -42.80474 147.49255 1106 ft 102 kts 27°
2026-04-20 07:08 -42.79788 147.49719 1069 ft 114 kts 31°
2026-04-20 07:08 -42.79096 147.50237 1154 ft 112 kts 33°
2026-04-20 07:09 -42.78426 147.50773 1272 ft 111 kts 33°
2026-04-20 07:09 -42.77787 147.51316 1402 ft 109 kts 34°
2026-04-20 07:09 -42.77157 147.51880 1524 ft 108 kts 36°
2026-04-20 07:09 -42.76543 147.52467 1591 ft 109 kts 38°
2026-04-20 07:10 -42.75907 147.53039 1645 ft 110 kts 32°
2026-04-20 07:10 -42.75223 147.53515 1715 ft 110 kts 30°
2026-04-20 07:10 -42.74646 147.54181 1761 ft 109 kts 50°
2026-04-20 07:10 -42.74183 147.54984 1818 ft 108 kts 56°
2026-04-20 07:11 -42.73750 147.55807 1869 ft 108 kts 58°
2026-04-20 07:11 -42.73315 147.56644 1923 ft 108 kts 57°
2026-04-20 07:11 -42.72877 147.57507 1929 ft 114 kts 59°
2026-04-20 07:11 -42.72495 147.58477 1925 ft 117 kts 66°
2026-04-20 07:12 -42.72143 147.59475 1966 ft 114 kts 66°
2026-04-20 07:12 -42.71808 147.60435 2079 ft 111 kts 66°
2026-04-20 07:12 -42.71479 147.61369 2148 ft 111 kts 66°
2026-04-20 07:12 -42.71467 147.62398 2150 ft 113 kts 111°
2026-04-20 07:13 -42.72049 147.63088 2155 ft 116 kts 158°
2026-04-20 07:13 -42.72227 147.63150 2170 ft 115 kts 165°
2026-04-20 07:14 -42.72424 147.63179 2162 ft 117 kts 173°
2026-04-20 07:14 -42.73209 147.62988 1980 ft 119 kts 189°
2026-04-20 07:14 -42.73631 147.63369 1677 ft 69 kts 74°
2026-04-20 07:14 -42.73237 147.63562 1543 ft 62 kts 357°
2026-04-20 07:15 -42.72846 147.63354 1458 ft 51 kts 333°
2026-04-20 07:15 -42.72718 147.63093 1333 ft 20 kts 302°
2026-04-20 07:15 -42.72689 147.62981 1283 ft 11 kts 279°
2026-04-20 07:15 -42.72675 147.62904 1247 ft 6 kts 345°
2026-04-20 07:16 -42.72658 147.62891 1237 ft 0 kts 335°